DEJRH ETNL-EDHL

Flight info

Callsign DEJRH
Flight time 0h 43m
Altitude 6000
Route TAGOB1E/09 TAGOB L23 RAMAR T906 RARUP RARUP2V
Aircraft PA24/L-SDGRY/S

Departure

Time 2026-05-05 19:46
Airport Rostock-Laage Airport (ETNL)

Arrival

Time 2026-05-05 20:29
Airport Lübeck Blankensee Airport (EDHL)
Time Latitude Longitude Altitude Speed Heading
2026-05-05 19:27 53.91432 12.28798 122 ft 0 kts 24°
2026-05-05 19:40 53.91437 12.28801 122 ft 4 kts 14°
2026-05-05 19:41 53.91498 12.28798 120 ft 11 kts 354°
2026-05-05 19:41 53.91532 12.28678 123 ft 17 kts 277°
2026-05-05 19:41 53.91551 12.28471 122 ft 21 kts 280°
2026-05-05 19:41 53.91572 12.28221 126 ft 21 kts 277°
2026-05-05 19:42 53.91591 12.27987 126 ft 20 kts 278°
2026-05-05 19:42 53.91609 12.27758 130 ft 19 kts 278°
2026-05-05 19:42 53.91627 12.27537 131 ft 19 kts 277°
2026-05-05 19:42 53.91646 12.27298 133 ft 23 kts 277°
2026-05-05 19:43 53.91688 12.27167 134 ft 13 kts 14°
2026-05-05 19:43 53.91722 12.27176 134 ft 0 kts
2026-05-05 19:45 53.91793 12.27193 134 ft 20 kts
2026-05-05 19:45 53.91864 12.27278 133 ft 25 kts 100°
2026-05-05 19:46 53.91801 12.28020 198 ft 84 kts 94°
2026-05-05 19:46 53.91719 12.29059 556 ft 89 kts 95°
2026-05-05 19:46 53.91636 12.30150 832 ft 99 kts 95°
2026-05-05 19:46 53.91548 12.31274 1208 ft 91 kts 94°
2026-05-05 19:47 53.91452 12.32339 1481 ft 94 kts 94°
2026-05-05 19:47 53.91366 12.33398 1813 ft 89 kts 91°
2026-05-05 19:47 53.91297 12.34446 2111 ft 91 kts 92°
2026-05-05 19:47 53.91216 12.35514 2419 ft 91 kts 94°
2026-05-05 19:48 53.91124 12.36590 2708 ft 94 kts 94°
2026-05-05 19:48 53.91030 12.37697 3003 ft 95 kts 94°
2026-05-05 19:48 53.90942 12.38815 3274 ft 97 kts 95°
2026-05-05 19:48 53.90847 12.39957 3552 ft 98 kts 98°
2026-05-05 19:49 53.90482 12.40969 3779 ft 107 kts 138°
2026-05-05 19:49 53.89846 12.41480 4140 ft 104 kts 168°
2026-05-05 19:49 53.89095 12.41225 4340 ft 116 kts 208°
2026-05-05 19:49 53.88592 12.40248 4720 ft 109 kts 242°
2026-05-05 19:50 53.88276 12.39063 5002 ft 111 kts 246°
2026-05-05 19:50 53.87955 12.37883 5311 ft 109 kts 243°
2026-05-05 19:50 53.87637 12.36707 5579 ft 110 kts 246°
2026-05-05 19:50 53.87335 12.35517 5882 ft 109 kts 246°
2026-05-05 19:51 53.87025 12.34302 6062 ft 119 kts 246°
2026-05-05 19:51 53.86663 12.32888 6017 ft 142 kts 247°
2026-05-05 19:51 53.86240 12.31288 6006 ft 152 kts 246°
2026-05-05 19:51 53.85796 12.29630 6017 ft 156 kts 246°
2026-05-05 19:52 53.85350 12.27932 6014 ft 158 kts 246°
2026-05-05 19:52 53.84907 12.26249 6008 ft 158 kts 246°
2026-05-05 19:52 53.84454 12.24556 6009 ft 158 kts 245°
2026-05-05 19:52 53.84002 12.22857 6004 ft 158 kts 246°
2026-05-05 19:53 53.83561 12.21158 6004 ft 158 kts 246°
2026-05-05 19:53 53.83113 12.19463 6004 ft 158 kts 246°
2026-05-05 19:53 53.82662 12.17766 6001 ft 158 kts 246°
2026-05-05 19:53 53.82214 12.16075 6005 ft 157 kts 246°
2026-05-05 19:54 53.81765 12.14382 6005 ft 157 kts 246°
2026-05-05 19:54 53.81324 12.12714 6003 ft 158 kts 246°
2026-05-05 19:54 53.80875 12.10998 6003 ft 158 kts 246°
2026-05-05 19:54 53.80435 12.09328 6003 ft 158 kts 246°
2026-05-05 19:55 53.79982 12.07640 6001 ft 158 kts 246°
2026-05-05 19:55 53.79525 12.05957 6003 ft 157 kts 245°
2026-05-05 19:55 53.79071 12.04271 6000 ft 158 kts 246°
2026-05-05 19:55 53.78637 12.02569 6001 ft 158 kts 246°
2026-05-05 19:56 53.78181 12.00886 6001 ft 157 kts 245°
2026-05-05 19:56 53.77715 11.99210 6000 ft 157 kts 246°
2026-05-05 19:56 53.77277 11.97509 6001 ft 157 kts 247°
2026-05-05 19:56 53.76838 11.95811 5999 ft 157 kts 246°
2026-05-05 19:57 53.76378 11.94128 5999 ft 158 kts 246°
2026-05-05 19:57 53.75924 11.92439 5996 ft 158 kts 246°
2026-05-05 19:57 53.75476 11.90749 5998 ft 157 kts 246°
2026-05-05 19:57 53.75015 11.89072 5995 ft 157 kts 244°
2026-05-05 19:58 53.74565 11.87386 5993 ft 158 kts 247°
2026-05-05 19:58 53.74129 11.85690 5995 ft 157 kts 247°
2026-05-05 19:58 53.73694 11.83993 5995 ft 157 kts 246°
2026-05-05 19:58 53.73327 11.82266 5984 ft 157 kts 263°
2026-05-05 19:59 53.73276 11.80454 5997 ft 156 kts 268°
2026-05-05 19:59 53.73255 11.78618 5994 ft 156 kts 269°
2026-05-05 19:59 53.73266 11.76786 5991 ft 156 kts 271°
2026-05-05 19:59 53.73276 11.74954 5993 ft 156 kts 270°
2026-05-05 20:00 53.73276 11.73122 5990 ft 156 kts 269°
2026-05-05 20:00 53.73268 11.71295 5989 ft 155 kts 269°
2026-05-05 20:00 53.73249 11.69470 5989 ft 155 kts 268°
2026-05-05 20:00 53.73183 11.67655 5989 ft 155 kts 267°
2026-05-05 20:01 53.73132 11.65842 5989 ft 155 kts 269°
2026-05-05 20:01 53.73098 11.64027 5991 ft 154 kts 268°
2026-05-05 20:01 53.73040 11.62220 5987 ft 154 kts 264°
2026-05-05 20:01 53.72934 11.60415 5988 ft 154 kts 263°
2026-05-05 20:02 53.72792 11.58619 5988 ft 154 kts 263°
2026-05-05 20:02 53.72696 11.56815 5990 ft 154 kts 267°
2026-05-05 20:02 53.72703 11.55007 5990 ft 154 kts 272°
2026-05-05 20:02 53.72740 11.53202 5988 ft 154 kts 272°
2026-05-05 20:03 53.72763 11.51400 5989 ft 153 kts 270°
2026-05-05 20:03 53.72745 11.49598 5986 ft 153 kts 268°
2026-05-05 20:03 53.72709 11.47802 5989 ft 153 kts 268°
2026-05-05 20:03 53.72670 11.46026 5989 ft 153 kts 268°
2026-05-05 20:04 53.72606 11.44237 5989 ft 153 kts 265°
2026-05-05 20:04 53.72500 11.42449 5990 ft 153 kts 264°
2026-05-05 20:04 53.72432 11.40657 5984 ft 153 kts 267°
2026-05-05 20:04 53.72358 11.38869 5986 ft 153 kts 267°
2026-05-05 20:05 53.72329 11.37080 5981 ft 152 kts 269°
2026-05-05 20:05 53.72304 11.35296 5986 ft 152 kts 269°
2026-05-05 20:05 53.72268 11.33507 5983 ft 152 kts 267°
2026-05-05 20:05 53.72217 11.31726 5984 ft 152 kts 267°
2026-05-05 20:06 53.72156 11.29948 5985 ft 152 kts 267°
2026-05-05 20:06 53.72085 11.28164 5984 ft 152 kts 266°
2026-05-05 20:06 53.72016 11.26391 5981 ft 151 kts 268°
2026-05-05 20:06 53.71971 11.24639 5986 ft 151 kts 267°
2026-05-05 20:07 53.71947 11.22867 5984 ft 151 kts 269°
2026-05-05 20:07 53.71927 11.21091 5992 ft 151 kts 269°
2026-05-05 20:07 53.71889 11.19321 5986 ft 151 kts 265°
2026-05-05 20:07 53.71824 11.17558 5991 ft 150 kts 266°
2026-05-05 20:08 53.71753 11.15798 5989 ft 150 kts 266°
2026-05-05 20:08 53.71668 11.14042 5988 ft 150 kts 265°
2026-05-05 20:08 53.71596 11.12282 5990 ft 150 kts 266°
2026-05-05 20:08 53.71521 11.10525 5990 ft 150 kts 266°
2026-05-05 20:09 53.71494 11.08764 5993 ft 150 kts 268°
2026-05-05 20:09 53.71487 11.07008 5992 ft 149 kts 271°
2026-05-05 20:09 53.71474 11.05257 5990 ft 149 kts 268°
2026-05-05 20:09 53.71443 11.03505 5996 ft 149 kts 268°
2026-05-05 20:10 53.71377 11.01754 5999 ft 149 kts 265°
2026-05-05 20:10 53.71264 11.00003 5996 ft 150 kts 263°
2026-05-05 20:10 53.71162 10.98258 5999 ft 150 kts 266°
2026-05-05 20:10 53.71115 10.96507 5995 ft 149 kts 268°
2026-05-05 20:11 53.71103 10.94749 5997 ft 150 kts 269°
2026-05-05 20:11 53.71031 10.93024 6000 ft 150 kts 253°
2026-05-05 20:11 53.70557 10.91465 5999 ft 150 kts 241°
2026-05-05 20:11 53.70083 10.89902 6001 ft 150 kts 244°
2026-05-05 20:12 53.69656 10.88296 6001 ft 150 kts 246°
2026-05-05 20:12 53.69212 10.86701 6005 ft 150 kts 243°
2026-05-05 20:12 53.68721 10.85144 6001 ft 150 kts 243°
2026-05-05 20:12 53.68271 10.83552 6003 ft 150 kts 247°
2026-05-05 20:13 53.67877 10.81914 6002 ft 150 kts 248°
2026-05-05 20:13 53.67495 10.80273 6003 ft 150 kts 249°
2026-05-05 20:13 53.67101 10.78631 5998 ft 151 kts 247°
2026-05-05 20:13 53.66677 10.77016 6002 ft 151 kts 246°
2026-05-05 20:14 53.66247 10.75408 6000 ft 151 kts 245°
2026-05-05 20:14 53.65806 10.73800 6001 ft 151 kts 245°
2026-05-05 20:14 53.65366 10.72210 6000 ft 151 kts 245°
2026-05-05 20:14 53.64927 10.70599 5997 ft 151 kts 245°
2026-05-05 20:15 53.64498 10.68978 5998 ft 151 kts 246°
2026-05-05 20:15 53.64161 10.67306 5991 ft 151 kts 266°
2026-05-05 20:15 53.64243 10.65540 6000 ft 151 kts 276°
2026-05-05 20:15 53.64356 10.63799 5995 ft 151 kts 276°
2026-05-05 20:16 53.64475 10.62020 6001 ft 151 kts 276°
2026-05-05 20:16 53.64592 10.60274 5996 ft 151 kts 276°
2026-05-05 20:16 53.64710 10.58513 5997 ft 151 kts 276°
2026-05-05 20:16 53.64827 10.56727 6014 ft 154 kts 276°
2026-05-05 20:17 53.64946 10.54912 6008 ft 157 kts 276°
2026-05-05 20:17 53.65070 10.53076 6000 ft 158 kts 276°
2026-05-05 20:17 53.65192 10.51240 5998 ft 159 kts 276°
2026-05-05 20:17 53.65311 10.49389 5995 ft 158 kts 276°
2026-05-05 20:18 53.65425 10.47570 5906 ft 156 kts 276°
2026-05-05 20:18 53.65504 10.45702 5698 ft 161 kts 273°
2026-05-05 20:18 53.65554 10.43830 5609 ft 158 kts 274°
2026-05-05 20:18 53.65608 10.41987 5460 ft 160 kts 272°
2026-05-05 20:19 53.65792 10.40160 5252 ft 164 kts 294°
2026-05-05 20:19 53.66600 10.38781 4968 ft 169 kts 335°
2026-05-05 20:19 53.67665 10.38192 5025 ft 152 kts 347°
2026-05-05 20:19 53.68676 10.37807 4940 ft 149 kts 349°
2026-05-05 20:20 53.69714 10.37449 4682 ft 154 kts 350°
2026-05-05 20:20 53.70742 10.37054 4549 ft 148 kts 349°
2026-05-05 20:20 53.71743 10.36564 4299 ft 152 kts 345°
2026-05-05 20:20 53.72746 10.36022 4113 ft 149 kts 344°
2026-05-05 20:21 53.73752 10.35670 3877 ft 151 kts
2026-05-05 20:21 53.74692 10.36415 3554 ft 151 kts 49°
2026-05-05 20:21 53.75098 10.37902 3480 ft 137 kts 84°
2026-05-05 20:21 53.75043 10.39487 3329 ft 134 kts 95°
2026-05-05 20:22 53.74926 10.41042 3166 ft 132 kts 94°
2026-05-05 20:22 53.75008 10.42576 2991 ft 127 kts 75°
2026-05-05 20:22 53.75196 10.43918 3015 ft 113 kts 76°
2026-05-05 20:22 53.75378 10.45195 2951 ft 111 kts 75°
2026-05-05 20:23 53.75528 10.45992 2974 ft 104 kts 71°
2026-05-05 20:23 53.75746 10.47120 2985 ft 99 kts 72°
2026-05-05 20:23 53.75955 10.48199 2959 ft 95 kts 72°
2026-05-05 20:23 53.76161 10.49263 2857 ft 96 kts 72°
2026-05-05 20:24 53.76369 10.50336 2751 ft 97 kts 72°
2026-05-05 20:24 53.76583 10.51444 2592 ft 101 kts 72°
2026-05-05 20:24 53.76799 10.52565 2434 ft 102 kts 71°
2026-05-05 20:24 53.77017 10.53693 2260 ft 100 kts 71°
2026-05-05 20:25 53.77232 10.54808 2066 ft 101 kts 71°
2026-05-05 20:25 53.77450 10.55930 1899 ft 98 kts 71°
2026-05-05 20:25 53.77659 10.57017 1740 ft 96 kts 71°
2026-05-05 20:25 53.77863 10.58067 1630 ft 90 kts 71°
2026-05-05 20:26 53.78047 10.59024 1491 ft 87 kts 70°
2026-05-05 20:26 53.78234 10.59996 1373 ft 88 kts 71°
2026-05-05 20:26 53.78426 10.60991 1242 ft 89 kts 70°
2026-05-05 20:26 53.78617 10.61981 1138 ft 89 kts 71°
2026-05-05 20:27 53.78811 10.62993 1017 ft 91 kts 71°
2026-05-05 20:27 53.79016 10.64024 900 ft 94 kts 69°
2026-05-05 20:27 53.79232 10.65066 782 ft 90 kts 70°
2026-05-05 20:27 53.79405 10.66008 637 ft 82 kts 70°
2026-05-05 20:28 53.79566 10.66856 538 ft 70 kts 69°
2026-05-05 20:28 53.79705 10.67596 459 ft 67 kts 69°
2026-05-05 20:28 53.79851 10.68342 358 ft 66 kts 70°
2026-05-05 20:28 53.79987 10.69086 263 ft 64 kts 70°
2026-05-05 20:29 53.80129 10.69802 162 ft 65 kts 69°
2026-05-05 20:29 53.80263 10.70515 70 ft 62 kts 70°
2026-05-05 20:29 53.80370 10.71059 56 ft 35 kts 72°
2026-05-05 20:29 53.80425 10.71367 59 ft 23 kts 73°
2026-05-05 20:30 53.80471 10.71603 58 ft 20 kts 72°
2026-05-05 20:30 53.80515 10.71825 56 ft 21 kts 71°
2026-05-05 20:30 53.80583 10.71927 55 ft 11 kts 308°
2026-05-05 20:30 53.80605 10.71847 56 ft 7 kts 292°
2026-05-05 20:31 53.80617 10.71793 56 ft 4 kts 293°
2026-05-05 20:31 53.80641 10.71699 56 ft 13 kts 294°
2026-05-05 20:31 53.80659 10.71552 56 ft 12 kts 257°
2026-05-05 20:31 53.80626 10.71373 56 ft 21 kts 253°
2026-05-05 20:32 53.80582 10.71140 56 ft 20 kts 252°
2026-05-05 20:32 53.80538 10.70918 56 ft 19 kts 252°
2026-05-05 20:32 53.80493 10.70680 56 ft 22 kts 251°
2026-05-05 20:32 53.80453 10.70480 56 ft 13 kts 259°
2026-05-05 20:33 53.80503 10.70375 56 ft 11 kts 324°
2026-05-05 20:33 53.80562 10.70333 56 ft 11 kts 22°
2026-05-05 20:33 53.80601 10.70415 56 ft 9 kts 82°
2026-05-05 20:33 53.80569 10.70449 56 ft 7 kts 199°
2026-05-05 20:34 53.80566 10.70421 56 ft 1 kts 32°
2026-05-05 20:34 53.80566 10.70422 56 ft 0 kts 47°